User: anonymous   Login
Location: Newark
(52.8300°N, 8.0000°E)
Time: 15:50:48
(UTC+00:00)
Language:

STARLINK-1074 - Orbit

View from above orbital plane
View from above orbital plane
View from above satellite
View from above satellite

Ground track
Ground track

The orbit data is extracted from the following two-line orbital elements,

1 44957C 20001AV  20095.53452660  .00007790  00000-0  84728-4 0   952
2 44957  53.0009 318.5129 0007814 331.1577 300.2424 15.62756002    14
Epoch (UTC): 04 April 2020 12:49:43
Eccentricity: 0.0007814
inclination: 53.0009°
perigee height: 374 km
apogee height: 385 km
right ascension of ascending node: 318.5129°
argument of perigee: 331.1577°
revolutions per day: 15.62756002
mean anomaly at epoch: 300.2424°
orbit number at epoch: 1

The dashed part of the orbit path shows where the satellite is in the earth's shadow,  

DLR